Location: Campestrin
(46.4667°N, 11.7167°E)
Time: 03:46:29
(UTC+00:00)

NOSS 3-1 (C) - Pass Details

Date: 18 April 2021
Orbit: 732 x 1476 km, 63.4° (Epoch: 18 April)

Event Time Altitude Azimuth Distance (km) Brightness Sun altitude
Rises 22:18:18 0° 319° (NW) 3,942 7.6 -31.1°
Reaches altitude 10° 22:20:49 10° 317° (NW) 3,079 6.8 -31.2°
Maximum altitude 22:28:19 71° 236° (SW) 1,377 4.0 -31.5°
Enters shadow 22:28:43 70° 216° (SW) 1,391 4.0 -31.5°
